Regional Weather Roundup
Issued by NWS

Home | Current Version | Previous Version | Graphics & Text | Print | Product List | Glossary On
Versions: 1 2 3 4 5 6 7 8 9 10 11 12 13 14 15 16 17 18 19 20 21 22 23 24 25 26 27 28 29 30 31 32 33 34 35 36 37 38 39 40 41 42 43 44 45 46 47 48 49 50
000
ASUS43 KDMX 292003
RWRIA

WEATHER ROUNDUP FOR IOWA
NATIONAL WEATHER SERVICE DES MOINES IA
300 PM CDT FRI JUL 29 2016

NOTE: "FAIR" INDICATES FEW OR NO CLOUDS BELOW 12,000 FEET WITH NO
SIGNIFICANT WEATHER AND/OR OBSTRUCTIONS TO VISIBILITY.

* - THESE STATIONS ARE NOT NWS STATIONS...THUS NOT UNDER NWS
QUALITY CONTROL.  THEY ALSO DO NOT REPORT WEATHER SUCH
AS PRECIPITATION OR FOG.

IAZ001>003-012>014-020>022-031>034-043>046-292100-
   NORTHWEST IOWA

CITY           SKY/WX    TMP DP  RH WIND       PRES   REMARKS
CARROLL *      CLOUDY    70  63  78 N6        30.04F
CHEROKEE *     CLOUDY    74  63  67 NE7       30.05S
DENISON *      PTSUNNY   73  64  73 NE12G18   30.03S
LE MARS *      PTSUNNY   77  59  53 N7        30.06F
SHELDON *      PTSUNNY   75  63  64 VRB6      30.05F
SIOUX CITY     PTSUNNY   80  57  45 E5        30.04F HX  80
SPENCER        PTSUNNY   78  60  53 NE12G17   30.06F
STORM LAKE *   MOSUNNY   72  63  73 NE7G14    30.07S
$$

IAZ055>058-069>071-079>083-090>094-292100-
   SOUTHWEST IOWA

CITY           SKY/WX    TMP DP  RH WIND       PRES   REMARKS
ATLANTIC *     PTSUNNY   73  64  73 N10       30.03R
CLARINDA *       N/A     81  64  57 MISG      30.04F HX  82
COUNCIL BLFS * MOSUNNY   77  63  61 N7        30.04S
CRESTON *      PTSUNNY   75  64  69 N12G17    30.02F
HARLAN  *      MOSUNNY   75  64  69 N13       30.06F
LAMONI         MOSUNNY   77  64  64 NW8       29.99F
RED OAK *      MOSUNNY   81  64  57 NW9G15    30.02F HX  82
SHENANDOAH *   MOSUNNY   77  64  65 N5        30.03F
$$

IAZ047>049-059>061-072>074-084-292100-
   CENTRAL IOWA

CITY           SKY/WX    TMP DP  RH WIND       PRES   REMARKS
AMES           CLOUDY    72  66  81 N7        30.01S
ANKENY *         N/A    N/A N/A N/A MISG        N/A
BOONE *        CLOUDY    70  64  83 N6        30.01S
CHARITON *       N/A    N/A N/A N/A MISG        N/A
DES MOINES     CLOUDY    71  63  75 NW10      30.00F
GRINNELL*      HVY RAIN  67  65  94 W7        30.00S
KNOXVILLE *    CLOUDY    70  64  83 W10       29.98F
MARSHALLTOWN   CLOUDY    68  66  93 N9        29.99S
NEWTON *       PTSUNNY   68  66  94 NW9       29.99S
PELLA *        CLOUDY    72  65  79 W7        30.00F
PERRY *        CLOUDY    69  65  88 NW5       30.03S
$$

IAZ004>006-015-016-023>025-035-036-292100-
   NORTH CENTRAL IOWA

CITY           SKY/WX    TMP DP  RH WIND       PRES   REMARKS
ALGONA *       CLOUDY    72  64  78 NE7       30.04F
ESTHERVILLE    CLOUDY    73  62  68 NE9       30.05F
FORT DODGE *   CLOUDY    70  61  73 NE9       30.04S
MASON CITY     CLOUDY    73  60  63 N13       30.03F
FOREST CITY *  PTSUNNY   73  63  68 N14       30.02F
IOWA FALLS *   CLOUDY    69  64  84 N6        30.03S
$$

IAZ007>011-017>019-026>030-037>042-050>054-066-292100-
   NORTHEAST IOWA

CITY           SKY/WX    TMP DP  RH WIND       PRES   REMARKS
CEDAR RAPIDS   CLOUDY    74  69  85 N5        29.95F
CHARLES CITY * CLOUDY    70  66  88 NE7       30.02S
CLINTON *      CLOUDY    78  71  79 N12       29.93F HX  80
DECORAH *      CLOUDY    68  64  88 NE7       30.01R
DUBUQUE        CLOUDY    69  67  93 NE9       29.98S
MONTICELLO *   PTSUNNY   70  66  88 N6        29.96F
OELWEIN *      CLOUDY    68  64  88 NE5       30.00S
WATERLOO       CLOUDY    68  62  81 N8        29.98F
$$

IAZ064-065-067-068-078-292100-
   EAST CENTRAL IOWA

CITY           SKY/WX    TMP DP  RH WIND       PRES   REMARKS
DAVENPORT      CLOUDY    78  68  71 N8        29.94F HX  80
IOWA CITY      LGT RAIN  75  68  78 N8        29.95F
MT. PLEASANT * CLOUDY    77  68  74 W9        29.95F
MUSCATINE *    MOSUNNY   81  68  65 W9        29.93F HX  83
QUAD CITIES    PTSUNNY   80  67  64 W6        29.91F HX  82
$$

IAZ062-063-075>077-085>089-095>099-292100-
   SOUTHEAST IOWA

CITY           SKY/WX    TMP DP  RH WIND       PRES   REMARKS
BURLINGTON     CLOUDY    75  67  76 W8        29.94F
FAIRFIELD *    CLOUDY    73  66  78 NW9       29.96F
KEOKUK *       PTSUNNY   79  66  65 NW9       29.94F HX  81
CENTERVILLE *    N/A     75  63  64 NW9       30.01S
OTTUMWA        CLOUDY    74  63  68 NW12      29.97F
WASHINGTON *   MOSUNNY   75  68  78 W10       29.96F
$$

ABBREVIATIONS USED IN REMARKS
   TC - TEMPERATURES IN CELSIUS
  WCI - WIND CHILL INDEX
   HX - HEAT INDEX
  VSB - VISIBILITY
$$





USA.gov is the U.S. government's official web portal to all federal, state and local government web resources and services.